Location: Cabeza de los Veneras
(40.2000°N, 5.2000°W)
Time: 03:23:09
(UTC+00:00)

USA 234 - Pass Details

Date: 18 April 2024
Orbit: 1099 x 1109 km, 123.0° (Epoch: 20 May)

Event Time Altitude Azimuth Distance (km) Brightness Sun altitude
Exits shadow 19:58:40 13° 112° (ESE) 2,711 4.6 -10.8°
Maximum altitude 20:04:23 59° 36° (NE) 1,258 3.5 -11.8°
Drops below altitude 10° 20:10:46 10° 319° (NW) 2,961 6.7 -12.9°
Sets 20:13:17 0° 316° (NW) 3,920 7.7 -13.3°
